Wind_Speed
68 65 58 53 57 61 58 51 51 54 48 50 49 52 46 43 47 45 47 41 43 42 41 40 42 44 49 50 47 48 43 43 33 35 33 36 36 35 38 36 38 35 35 37 34
70 71 65 57 56 58 55 50 46 49 50 52 53 55 46 49 46 48 48 45 44 39 41 42 43 46 47 46 42 43 42 42 34 33 34 32 36 36 39 40 35 31 33 32 33
70 69 68 59 58 61 53 51 54 54 53 56 54 49 52 51 47 44 49 49 41 47 43 47 46 47 44 43 41 42 39 37 33 28 29 28 33 37 40 38 32 32 34 33 34
70 70 63 60 57 56 55 57 56 57 57 56 55 56 53 54 50 46 50 44 41 49 48 50 50 44 45 38 37 35 40 38 36 32 32 33 30 39 38 40 33 33 34 37 36
71 70 67 66 69 64 64 58 62 61 59 54 51 50 50 52 49 51 47 45 49 49 49 50 46 40 40 39 36 38 39 38 37 37 38 35 35 30 33 34 38 38 40 41 39
68 69 70 74 73 71 69 63 63 63 62 62 54 49 52 53 49 49 50 50 52 52 50 47 43 38 41 38 38 37 42 43 43 41 40 31 30 33 38 36 40 39 40 35 38
70 68 71 70 73 71 62 68 69 67 64 58 52 54 56 52 49 49 52 53 53 50 51 46 45 43 39 39 41 39 41 39 40 38 33 35 38 37 40 35 36 35 39 44 38
68 69 71 78 77 67 70 70 70 71 71 63 57 54 56 55 57 53 54 56 53 51 51 47 44 42 39 39 40 38 40 41 40 39 37 37 38 41 41 42 42 42 36 36 37
69 69 72 73 74 77 76 74 71 63 59 58 59 59 64 60 57 55 53 56 55 51 49 48 45 43 42 44 41 43 40 43 45 43 43 37 34 41 41 38 33 37 36 43 45
70 70 69 72 71 72 71 69 69 69 70 69 70 68 66 64 61 59 57 57 55 51 53 51 45 43 45 48 45 43 45 46 45 44 45 41 38 41 47 44 43 44 48 54 54
73 71 71 68 67 68 70 67 70 69 73 76 71 68 66 65 63 62 58 58 56 51 50 50 47 48 50 49 46 45 44 44 48 50 46 47 46 44 49 49 48 47 52 56 56
78 78 75 73 68 67 66 69 66 67 68 66 63 64 65 64 61 61 59 57 54 54 53 53 49 55 56 54 52 52 54 53 52 53 49 46 45 48 50 52 53 54 58 60 62
77 76 75 74 74 73 74 69 71 68 64 63 63 61 63 57 59 62 57 58 58 54 55 55 54 55 54 53 51 53 51 51 48 52 52 50 49 49 50 54 57 58 61 64 65
77 75 72 75 72 71 69 70 68 67 64 60 65 58 59 57 57 59 56 58 56 57 56 51 50 50 50 50 53 51 52 50 52 52 49 51 48 52 55 58 63 65 67 67 69
73 75 71 73 72 70 71 69 67 67 65 61 60 57 56 56 58 60 61 57 56 57 53 51 52 53 50 52 54 52 54 53 55 53 53 54 56 49 55 59 63 67 67 69 76
78 70 74 75 75 76 72 68 67 70 64 59 57 59 59 58 57 57 60 61 60 59 56 56 57 53 54 57 58 59 60 62 59 63 65 66 66 58 61 63 73 73 72 80 76
86 85 82 82 79 80 72 68 69 69 62 59 59 61 62 61 60 62 62 63 64 65 63 63 63 64 65 67 69 71 71 73 73 73 76 71 71 68 71 75 82 88 85 82 80
82 85 75 83 79 78 73 73 71 65 63 65 63 63 66 66 64 62 62 64 65 63 64 65 67 68 71 73 73 74 76 80 79 81 79 79 81 85 85 89 92 85 88 96 96
83 83 87 86 80 76 77 77 68 67 71 66 65 69 68 68 67 68 68 69 67 69 73 73 71 72 77 77 79 76 75 80 84 86 86 83 85 94 93 91 89 98 98 100 105
87 92 85 85 81 81 82 76 72 69 69 72 70 70 71 72 72 72 73 72 73 74 73 72 77 78 76 76 78 81 82 84 87 91 95 89 93 97 96 90 98 101 105 109 112
95 96 91 89 88 92 88 78 72 73 68 69 66 69 70 72 74 73 75 74 75 75 76 79 83 81 81 79 82 83 85 92 93 99 98 96 97 104 99 102 113 111 118 113 114
97 99 92 93 92 94 84 75 74 78 76 73 71 65 72 72 78 80 81 76 76 79 81 87 82 79 80 84 87 91 90 94 102 101 105 106 102 100 105 117 120 117 119 117 125
100 102 99 100 99 93 84 80 79 80 80 81 72 69 76 78 82 83 88 92 87 85 84 86 87 85 88 91 92 92 96 103 109 110 105 112 99 112 120 122 120 118 120 126 136
105 105 104 101 98 96 90 87 82 83 84 84 79 82 82 80 82 86 89 90 90 93 92 91 92 93 96 99 98 103 109 107 110 110 110 107 119 122 130 126 119 125 132 141 142
103 105 103 98 98 94 95 90 88 86 85 84 85 81 82 87 86 91 95 97 98 97 97 98 99 102 104 107 108 111 111 107 104 110 121 121 128 125 128 128 130 138 146 149 149
105 104 99 97 97 97 95 90 91 89 92 89 93 91 89 92 96 96 98 102 101 102 105 108 109 109 109 111 109 108 110 113 117 121 127 127 122 134 133 137 146 148 150 154 153
107 98 96 97 98 98 93 87 94 95 97 99 97 100 96 96 99 102 105 107 105 108 111 111 112 113 111 111 113 113 112 117 121 126 127 131 138 146 148 150 153 155 156 155 154
Wind_Direction
256 248 246 252 260 263 261 270 272 267 265 272 274 278 274 279 282 281 287 288 289 281 278 279 279 289 295 296 296 290 286 290 284 277 273 285 287 288 293 299 301 293 290 286 297
252 250 250 250 260 262 268 262 269 267 270 279 280 273 273 274 282 288 287 288 287 283 279 281 284 288 293 298 293 290 291 294 285 283 276 275 281 287 289 296 293 290 287 282 291
252 250 252 248 253 258 263 260 267 268 274 281 277 266 268 269 280 290 286 291 285 277 276 285 289 294 294 297 290 287 292 292 284 279 279 280 284 286 284 293 287 283 286 288 284
250 253 252 251 257 258 258 262 265 270 274 273 265 269 270 271 276 285 284 282 271 275 279 282 289 291 294 291 287 285 287 288 291 293 289 296 290 281 278 285 282 278 277 282 282
253 251 249 248 249 250 254 261 263 266 271 270 272 266 272 278 285 283 281 269 270 273 277 283 288 287 290 290 285 277 282 281 282 284 294 297 296 284 280 275 275 276 277 279 281
253 251 254 252 251 250 253 258 260 267 273 272 269 271 271 272 277 275 275 273 272 276 278 282 284 282 289 287 282 276 276 276 282 281 293 296 281 278 282 282 278 283 285 286 286
255 253 248 249 250 254 262 262 264 269 272 267 266 271 273 275 275 272 276 274 275 274 277 281 281 283 283 281 278 278 280 281 280 289 291 286 278 276 287 283 283 285 283 286 284
252 256 255 252 255 252 253 260 265 267 271 267 267 269 268 273 277 272 274 275 272 271 274 276 278 277 274 272 271 274 275 280 288 288 285 290 285 284 285 282 281 283 280 283 290
251 253 251 255 251 255 258 263 267 269 267 265 265 267 272 272 276 275 275 271 270 270 270 272 273 271 270 267 272 274 278 279 280 281 282 282 274 284 284 289 286 285 276 286 291
248 249 252 250 252 260 261 258 263 264 263 263 266 266 269 271 271 274 274 270 270 265 265 268 268 266 266 270 274 274 274 278 277 278 281 281 278 281 281 285 288 286 281 285 291
245 250 253 254 256 259 252 257 259 260 259 261 261 264 262 269 272 272 270 268 268 262 264 267 265 261 266 270 271 269 271 275 276 277 281 277 276 276 276 278 284 283 281 282 283
243 245 246 247 250 251 252 252 255 256 260 262 265 265 266 269 268 267 265 264 263 261 261 262 263 266 270 274 271 267 270 272 275 280 283 275 276 277 280 280 280 281 285 288 290
243 244 247 249 252 254 255 257 259 259 261 262 263 262 266 266 263 264 262 260 258 257 259 262 264 269 272 276 275 272 272 275 279 282 284 282 280 276 280 283 282 283 285 285 288
245 246 246 253 252 253 254 256 258 260 257 257 262 261 261 259 259 260 258 261 261 258 260 266 268 271 274 276 274 275 275 276 276 277 281 284 281 281 283 285 287 289 290 291 290
246 249 247 249 249 253 256 257 257 254 254 253 256 258 259 258 256 257 258 257 259 260 261 262 267 270 275 276 278 275 277 279 277 276 279 281 279 285 287 288 290 289 289 291 294
240 241 247 247 249 251 253 253 252 251 252 251 253 257 256 257 255 253 254 255 255 258 262 264 265 271 273 273 273 274 274 273 278 286 292 290 290 289 286 288 291 296 289 297 300
240 244 248 246 248 248 250 249 248 250 250 248 249 253 256 256 255 254 255 256 258 260 261 265 271 273 276 277 276 276 278 282 281 284 291 292 294 296 291 291 295 299 302 303 299
237 241 234 246 247 246 246 245 248 252 251 251 250 251 255 256 255 256 257 258 260 260 265 270 273 279 279 281 284 281 281 285 286 291 294 296 299 301 299 297 295 298 299 304 305
235 239 241 245 244 244 242 246 250 250 253 253 255 253 256 257 257 257 259 260 263 268 271 274 277 284 287 287 284 286 288 289 292 294 293 295 299 299 296 294 291 298 303 305 308
231 231 237 242 242 241 240 244 249 252 256 258 258 256 256 256 255 256 259 262 265 268 272 274 281 283 286 286 286 287 289 292 295 297 293 291 294 299 298 291 293 297 300 304 304
232 235 238 242 241 241 242 244 248 252 255 256 260 258 256 257 258 259 261 263 264 266 271 278 282 283 286 289 288 290 290 289 290 294 295 293 297 299 294 293 299 301 304 304 305
234 235 237 239 240 240 244 247 248 250 252 257 259 259 258 259 258 259 260 268 270 271 272 279 284 286 287 288 288 289 288 287 293 293 294 293 299 296 295 298 302 301 302 301 304
235 235 236 237 238 242 243 246 248 250 254 256 260 257 255 262 265 265 269 270 278 278 279 280 283 284 285 287 286 288 290 291 294 294 293 295 297 295 299 299 302 301 300 300 305
232 234 236 237 240 242 243 244 248 248 254 256 256 259 264 267 267 266 264 269 273 276 278 280 281 283 285 287 286 288 292 293 294 294 295 293 294 296 299 300 297 298 305 306 306
231 233 235 239 241 245 246 247 249 252 254 252 257 258 260 265 268 267 265 269 273 277 279 281 282 283 284 286 290 293 294 293 291 290 292 294 294 297 298 297 302 305 303 304 304
228 231 232 240 240 244 243 245 249 252 252 253 256 258 259 263 266 267 269 272 273 277 280 282 285 284 285 288 290 290 290 291 291 291 296 297 296 298 299 300 302 305 305 303 302
227 231 235 233 233 241 247 250 250 249 250 254 256 259 260 261 265 268 270 272 275 279 280 282 284 286 285 288 288 289 287 287 288 294 296 296 296 298 300 302 303 304 304 303 303
Height
10773 10775 10778 10782 10786 10789 10793 10794 10795 10797 10798 10799 10800 10802 10801 10802 10803 10802 10802 10804 10803 10802 10803 10804 10805 10804 10802 10800 10795 10791 10786 10783 10785 10787 10789 10789 10787 10786 10786 10789 10786 10782 10781 10780 10778
10761 10765 10768 10772 10775 10779 10783 10786 10786 10788 10789 10789 10791 10792 10792 10793 10794 10794 10794 10795 10793 10793 10794 10795 10797 10795 10794 10791 10787 10782 10779 10777 10780 10781 10782 10783 10780 10780 10780 10782 10781 10778 10776 10774 10773
10748 10752 10756 10760 10762 10767 10772 10774 10777 10778 10779 10780 10780 10782 10782 10782 10783 10788 10784 10785 10785 10784 10785 10787 10787 10787 10785 10784 10779 10773 10772 10773 10774 10775 10775 10777 10776 10775 10774 10776 10776 10773 10772 10769 10768
10735 10740 10744 10748 10751 10756 10760 10763 10766 10767 10770 10771 10770 10772 10772 10771 10775 10778 10776 10774 10776 10776 10776 10778 10778 10777 10776 10775 10773 10766 10766 10767 10767 10767 10768 10769 10769 10767 10768 10768 10770 10767 10766 10763 10761
10722 10728 10732 10734 10737 10741 10745 10750 10754 10755 10759 10761 10761 10762 10762 10760 10766 10766 10766 10765 10765 10767 10767 10768 10769 10768 10766 10766 10765 10759 10758 10759 10760 10761 10763 10762 10761 10760 10760 10763 10761 10761 10760 10758 10756
10708 10713 10718 10721 10724 10729 10735 10738 10742 10744 10748 10750 10752 10752 10752 10751 10759 10758 10757 10757 10756 10756 10758 10759 10759 10758 10757 10757 10756 10752 10750 10752 10753 10755 10756 10755 10752 10752 10754 10756 10753 10756 10753 10751 10748
10695 10699 10704 10707 10710 10718 10722 10726 10729 10733 10736 10739 10740 10742 10739 10743 10747 10749 10747 10747 10746 10747 10747 10749 10749 10748 10747 10748 10747 10746 10744 10742 10744 10748 10749 10748 10743 10742 10745 10746 10745 10747 10745 10742 10739
10680 10685 10689 10693 10698 10704 10709 10712 10714 10720 10725 10728 10729 10730 10725 10733 10737 10737 10737 10736 10735 10735 10737 10739 10738 10737 10738 10738 10735 10738 10736 10734 10736 10739 10742 10743 10738 10734 10735 10738 10738 10736 10734 10732 10730
10666 10672 10675 10679 10685 10690 10695 10698 10702 10705 10710 10713 10715 10719 10714 10721 10724 10725 10725 10724 10726 10724 10728 10729 10729 10728 10727 10726 10728 10728 10730 10727 10724 10729 10734 10734 10734 10726 10725 10726 10726 10725 10722 10721 10720
10651 10657 10662 10666 10673 10677 10683 10687 10690 10694 10696 10698 10703 10706 10704 10708 10711 10713 10713 10713 10714 10714 10716 10716 10719 10719 10714 10715 10720 10721 10719 10718 10714 10716 10723 10725 10726 10720 10714 10716 10715 10714 10713 10710 10708
10637 10641 10646 10652 10659 10664 10669 10673 10677 10682 10682 10685 10690 10691 10691 10695 10700 10699 10699 10702 10701 10703 10705 10706 10708 10704 10704 10706 10709 10708 10708 10708 10703 10703 10713 10712 10715 10711 10706 10708 10704 10701 10700 10698 10696
10622 10628 10635 10642 10646 10652 10658 10659 10660 10668 10672 10673 10675 10676 10679 10683 10686 10685 10686 10689 10690 10691 10693 10694 10694 10691 10693 10695 10696 10697 10696 10694 10695 10691 10700 10701 10703 10699 10696 10694 10692 10690 10686 10684 10683
10607 10612 10620 10628 10634 10640 10642 10642 10645 10651 10658 10656 10662 10663 10665 10672 10671 10670 10675 10676 10677 10679 10678 10682 10682 10679 10681 10682 10683 10683 10683 10682 10686 10682 10684 10691 10694 10690 10686 10680 10677 10675 10673 10671 10669
10592 10598 10607 10614 10622 10622 10624 10625 10631 10636 10643 10647 10645 10654 10653 10658 10661 10657 10665 10663 10666 10665 10668 10671 10666 10667 10668 10669 10669 10673 10668 10671 10671 10673 10673 10675 10684 10680 10674 10668 10661 10659 10656 10654 10651
10578 10584 10594 10597 10605 10606 10604 10614 10619 10619 10628 10635 10636 10639 10640 10645 10648 10647 10649 10656 10653 10651 10656 10656 10654 10655 10655 10655 10655 10658 10654 10654 10656 10658 10662 10662 10661 10669 10664 10654 10647 10643 10640 10637 10634
10564 10565 10576 10586 10589 10586 10591 10601 10601 10600 10617 10626 10625 10623 10627 10631 10634 10634 10635 10638 10640 10639 10640 10641 10642 10642 10642 10641 10640 10640 10639 10638 10640 10641 10647 10645 10643 10656 10646 10641 10633 10629 10626 10621 10617
10547 10554 10563 10565 10572 10571 10580 10583 10579 10587 10604 10609 10613 10612 10613 10617 10619 10621 10622 10624 10626 10627 10629 10626 10628 10628 10627 10625 10623 10622 10622 10620 10622 10623 10626 10626 10626 10632 10625 10618 10610 10606 10602 10597 10593
10531 10538 10545 10548 10553 10561 10566 10563 10565 10582 10587 10595 10598 10600 10601 10603 10606 10607 10608 10609 10610 10613 10613 10613 10614 10613 10613 10610 10606 10604 10602 10598 10598 10600 10604 10601 10605 10604 10598 10592 10589 10582 10576 10572 10568
10514 10518 10525 10533 10539 10544 10545 10544 10562 10569 10568 10576 10582 10586 10589 10590 10592 10594 10594 10594 10596 10597 10596 10597 10598 10596 10594 10592 10589 10587 10581 10577 10576 10578 10579 10582 10583 10580 10574 10566 10560 10555 10550 10546 10540
10493 10500 10512 10516 10520 10523 10521 10535 10546 10553 10558 10559 10565 10571 10574 10574 10577 10577 10577 10584 10583 10581 10581 10582 10579 10580 10578 10574 10571 10566 10562 10557 10552 10552 10551 10561 10563 10551 10547 10538 10533 10529 10524 10519 10513
10472 10480 10498 10498 10501 10498 10506 10529 10534 10536 10542 10544 10549 10552 10557 10558 10558 10560 10562 10566 10568 10567 10566 10566 10563 10564 10560 10557 10551 10548 10545 10540 10532 10531 10522 10527 10541 10521 10516 10510 10503 10500 10496 10490 10483
10454 10458 10477 10477 10475 10483 10503 10518 10521 10520 10526 10529 10531 10536 10538 10541 10540 10541 10542 10543 10549 10550 10549 10547 10544 10541 10538 10538 10535 10531 10525 10519 10510 10506 10498 10491 10516 10493 10487 10481 10478 10475 10471 10463 10453
10436 10441 10453 10454 10461 10476 10492 10499 10501 10506 10510 10512 10516 10520 10523 10522 10522 10522 10520 10522 10525 10526 10526 10526 10524 10520 10518 10517 10513 10510 10506 10498 10489 10481 10476 10462 10479 10466 10455 10451 10446 10444 10440 10431 10419
10414 10418 10425 10435 10452 10463 10474 10482 10483 10488 10492 10496 10498 10500 10504 10504 10504 10503 10501 10503 10505 10505 10505 10505 10504 10500 10497 10493 10492 10488 10482 10473 10463 10453 10449 10444 10443 10442 10428 10422 10424 10417 10402 10389 10378
10393 10396 10414 10429 10446 10452 10457 10466 10466 10471 10475 10478 10480 10485 10486 10485 10484 10484 10483 10483 10483 10484 10483 10484 10484 10478 10475 10471 10468 10464 10457 10448 10437 10430 10422 10433 10407 10411 10400 10391 10390 10389 10375 10356 10342
10374 10387 10409 10418 10424 10429 10434 10449 10451 10453 10455 10458 10463 10466 10467 10466 10464 10464 10463 10464 10464 10465 10462 10461 10459 10454 10450 10447 10444 10440 10435 10424 10413 10405 10398 10394 10392 10370 10371 10360 10359 10355 10336 10320 10305
10357 10383 10393 10399 10409 10411 10422 10429 10433 10432 10432 10437 10442 10446 10448 10447 10445 10444 10445 10444 10445 10445 10441 10439 10434 10429 10428 10424 10420 10420 10411 10398 10387 10383 10376 10367 10361 10352 10337 10328 10327 10322 10296 10275 10263